Location: Drocourt
(49.0571°N, 1.7669°E)
Time: 06:19:47
(UTC+00:00)

Cosmos 2237 Rocket - Pass Details

Date: 09 February 2023
Orbit: 835 x 849 km, 71.0° (Epoch: 29 March)

Event Time Altitude Azimuth Distance (km) Brightness Sun altitude
Rises 18:25:27 0° 170° (S) 3,395 5.3 -13.9°
Reaches altitude 10° 18:28:14 10° 158° (SSE) 2,466 4.5 -14.4°
Maximum altitude 18:32:51 27° 103° (ESE) 1,596 3.1 -15.1°
Enters shadow 18:34:29 23° 77° (ENE) 1,732 3.2 -15.4°
